Flag for United Kingdom Past Weather in Newport (Isle of Wight), England, United Kingdom — Yesterday and Last 2 Weeks

Now
44 °F

Quite cool.


Feels Like: 40 °F
Forecast: 37 / 51 °F
Wind: 7 mph from Northeast

Location: Saint Catherine's Point

Current Time: Apr 26, 2017 at 11:02:46 am

Latest Report: Apr 26, 2017 at 10:00 am


Visibility: N/A

Pressure: 30.06 "Hg

Humidity: 71%

Dew Point: 36 °F

Location of Newport (Isle of Wight)Location

Past Weather in Newport (Isle of Wight) — Graph

°F

Newport (Isle of Wight) Temperature Yesterday

Maximum temperature yesterday: 51 °F (at 6:00 pm)
Minimum temperature yesterday: 38 °F (at 5:00 am)
Average temperature yesterday: 44 °F

High & Low Weather Summary for the Past Weeks

 TemperatureHumidityPressure
High57 °F (Apr 22, 11:00 am)98% (Apr 23, 3:00 am)30.64 "Hg (Apr 23, 3:00 am)
Low36 °F (Apr 26, 5:00 am)34% (Apr 25, 4:00 pm)29.90 "Hg (Apr 24, 8:00 pm)
Average50 °F77%30.25 "Hg
* Reported Apr 11 9:00 am — Apr 26 9:00 am, Newport (Isle of Wight), Weather by CustomWeather, © 2017

Note: Actual official high and low records may vary slightly from our data, if they occured in-between our weather recording intervals... More about our weather records

Advertising

Newport (Isle of Wight) Weather History for the Previous 24 Hours

Scroll right to see more
 ConditionsComfort  
Time TempWeatherWind HumidityBarometerVisibility
9:00 am
Wed, Apr 26
41 °FQuite cool.9 mph76%30.05 "HgN/A
8:00 am40 °FChilly.5 mph81%30.04 "HgN/A
7:00 am37 °FChilly.5 mph86%30.03 "HgN/A
6:00 am36 °FChilly.5 mph89%30.01 "HgN/A
5:00 am36 °FChilly.2 mph90%30.01 "HgN/A
4:00 am36 °FChilly.2 mph89%30.01 "HgN/A
3:00 am37 °FChilly.3 mph88%30.01 "HgN/A
2:00 am37 °FChilly.5 mph88%30.01 "HgN/A
12:50 am37 °FChilly.6 mph88%30.00 "HgN/A
12:00 am38 °FChilly.6 mph87%30.00 "HgN/A
11:00 pm
Tue, Apr 25
39 °FChilly.5 mph84%29.99 "HgN/A
10:00 pm40 °FChilly.5 mph77%29.98 "HgN/A
9:00 pm43 °FQuite cool.9 mph61%29.96 "HgN/A
8:00 pm46 °FCool.6 mph49%29.94 "HgN/A
7:00 pm47 °FCool.7 mph49%29.93 "HgN/A
6:00 pm51 °FCool.5 mph35%29.92 "HgN/A
5:00 pm50 °FCool.7 mph35%29.93 "HgN/A
4:00 pm50 °FCool.5 mph34%29.94 "HgN/A
3:00 pm48 °FCool.5 mph37%29.95 "HgN/A
2:00 pm48 °FCool.7 mph42%29.95 "HgN/A
12:50 pm47 °FCool.10 mph47%29.96 "HgN/A
12:00 pm48 °FCool.9 mph52%29.96 "HgN/A
11:00 am46 °FCool.8 mph53%29.96 "HgN/A
Weather by CustomWeather, © 2017

See weather overviewHow to use our weather pages